Terug naar catalogus

FENGYUN 1C DEB

ActiefSSO
NORAD 30510·DEBRIS·🇨🇳 China

Gelanceerd May 10, 1999 vanaf Taiyuan Satellite Launch Center

Loading…

Volgende Passages (komende 24 uur)

TLE

VersSource: Space-Track

Epoch: Sep 14, 2026, 01:20 UTC

1 30510U 99025AHY 26257.05616071  .00001457  00000-0  76734-3 0  9999
2 30510  99.2331 283.0781 0078947 114.2253 272.9825 14.14042318  4614

Volg FENGYUN 1C DEB in realtime met AllMySat

Download on the App Store